owner,sensor,date,latitude,longitude,vertical_datum,wind_speed,wind_to_direction,wind_speed_of_gust,qcFlag 
TABS,ioos:station:wmo:42043:1,2012-01-01T00:00:00Z,28.9818,-94.9186,4.0,1.762413118,163.5189768,2.38,'11111222,11111222,11111222' 
TABS,ioos:station:wmo:42043:1,2012-01-01T00:30:00Z,28.9818,-94.9186,4.0,2.1914607,161.6479824,2.69,'11111222,11111222,11111222' 
TABS,ioos:station:wmo:42043:1,2012-01-01T01:00:00Z,28.9818,-94.9186,4.0,2.232241026,154.8128071,3.08,'11111222,11111222,11111222' 
TABS,ioos:station:wmo:42043:1,2012-01-01T01:30:00Z,28.9818,-94.9186,4.0,1.395421083,152.7007021,2.08,'11111222,11111222,11111222' 
TABS,ioos:station:wmo:42043:1,2012-01-01T02:00:00Z,28.9818,-94.9186,4.0,1.876272901,148.5128147,2.41,'11111222,11111222,11111222' 
TABS,ioos:station:wmo:42043:1,2012-01-01T02:30:00Z,28.9818,-94.9186,4.0,0.145602198,195.9455691,1.73,'11111222,11111222,11111222' 
TABS,ioos:station:wmo:42043:1,2012-01-01T03:00:00Z,28.9818,-94.9186,4.0,1.290038759,180.4443539,2.3,'11111222,11111222,11111222' 
TABS,ioos:station:wmo:42043:1,2012-01-01T03:30:00Z,28.9818,-94.9186,4.0,0.930053762,179.384152,1.73,'11111222,11111222,11111222' 
TABS,ioos:station:wmo:42043:1,2012-01-01T04:00:00Z,28.9818,-94.9186,4.0,1.902445794,164.1375892,2.57,'11111222,11111222,11111222' 
TABS,ioos:station:wmo:42043:1,2012-01-01T04:30:00Z,28.9818,-94.9186,4.0,2.530019763,179.7737466,3.23,'11111222,11111222,11111222' 
TABS,ioos:station:wmo:42043:1,2012-01-01T05:00:00Z,28.9818,-94.9186,4.0,1.344061011,162.2393401,1.7,'11111222,11111222,11111222' 
TABS,ioos:station:wmo:42043:1,2012-01-01T05:30:00Z,28.9818,-94.9186,4.0,0.669103878,189.4625105,1.1,'11111222,11111222,11111222' 
TABS,ioos:station:wmo:42043:1,2012-01-01T06:00:00Z,28.9818,-94.9186,4.0,1.212765435,166.6515146,1.72,'11111222,11111222,11111222' 
TABS,ioos:station:wmo:42043:1,2012-01-01T06:30:00Z,28.9818,-94.9186,4.0,2.606395979,171.8390389,3.5,'11111222,11111222,11111222' 
TABS,ioos:station:wmo:42043:1,2012-01-01T07:00:00Z,28.9818,-94.9186,4.0,3.641112467,181.4165725,4.3,'11111222,11111222,11111222' 
TABS,ioos:station:wmo:42043:1,2012-01-01T07:30:00Z,28.9818,-94.9186,4.0,4.221397873,184.2115294,6.01,'11111222,11111222,11111222' 
TABS,ioos:station:wmo:42043:1,2012-01-01T08:00:00Z,28.9818,-94.9186,4.0,3.320557182,201.0005076,4.7,'11111222,11111222,11111222' 
TABS,ioos:station:wmo:42043:1,2012-01-01T08:30:00Z,28.9818,-94.9186,4.0,1.932588937,222.2738006,2.33,'11111222,11111222,11111222' 
TABS,ioos:station:wmo:42043:1,2012-01-01T09:00:00Z,28.9818,-94.9186,4.0,1.33225373,307.9880529,1.85,'11111222,11111222,11111222' 
TABS,ioos:station:wmo:42043:1,2012-01-01T09:30:00Z,28.9818,-94.9186,4.0,0.921954446,335.6587565,1.64,'11111222,11111222,11111222' 
TABS,ioos:station:wmo:42043:1,2012-01-01T10:00:00Z,28.9818,-94.9186,4.0,1.748971126,334.6069264,2.27,'11111222,11111222,11111222' 
TABS,ioos:station:wmo:42043:1,2012-01-01T10:30:00Z,28.9818,-94.9186,4.0,3.529886684,335.0319839,4.51,'11111222,11111222,11111222' 
TABS,ioos:station:wmo:42043:1,2012-01-01T11:00:00Z,28.9818,-94.9186,4.0,3.40147027,308.5544918,4.85,'11111222,11111222,11111222' 
TABS,ioos:station:wmo:42043:1,2012-01-01T11:30:00Z,28.9818,-94.9186,4.0,2.628802009,336.4578269,3.27,'11111222,11111222,11111222' 
TABS,ioos:station:wmo:42043:1,2012-01-01T12:00:00Z,28.9818,-94.9186,4.0,3.128226335,309.0315765,3.86,'11111222,11111222,11111222' 
TABS,ioos:station:wmo:42043:1,2012-01-01T12:30:00Z,28.9818,-94.9186,4.0,3.314000604,332.8935622,4.18,'11111222,11111222,11111222' 
TABS,ioos:station:wmo:42043:1,2012-01-01T13:00:00Z,28.9818,-94.9186,4.0,7.200180553,335.4636921,8.6,'11111222,11111222,11111222' 
TABS,ioos:station:wmo:42043:1,2012-01-01T13:30:00Z,28.9818,-94.9186,4.0,7.830312893,352.8838657,9.6,'11111222,11111222,11111222' 
TABS,ioos:station:wmo:42043:1,2012-01-01T14:00:00Z,28.9818,-94.9186,4.0,7.813245164,5.287153966,9.96,'11111222,11111222,11111222' 
TABS,ioos:station:wmo:42043:1,2012-01-01T14:30:00Z,28.9818,-94.9186,4.0,8.030504343,0.641930537,10.41,'11111222,11111222,11111222' 
TABS,ioos:station:wmo:42043:1,2012-01-01T15:00:00Z,28.9818,-94.9186,4.0,10.00522364,4.069076709,12.71,'11111222,11111222,11111222' 
TABS,ioos:station:wmo:42043:1,2012-01-01T15:30:00Z,28.9818,-94.9186,4.0,10.14430382,7.818356342,12.08,'11111222,11111222,11111222' 
TABS,ioos:station:wmo:42043:1,2012-01-01T16:00:00Z,28.9818,-94.9186,4.0,10.43556419,18.60831789,12.8,'11111222,11111222,11111222' 
TABS,ioos:station:wmo:42043:1,2012-01-01T16:30:00Z,28.9818,-94.9186,4.0,10.78096471,23.85430088,12.8,'11111222,11111222,11111222' 
TABS,ioos:station:wmo:42043:1,2012-01-01T17:00:00Z,28.9818,-94.9186,4.0,10.57421865,23.46157229,13.14,'11111222,11111222,11111222' 
TABS,ioos:station:wmo:42043:1,2012-01-01T17:30:00Z,28.9818,-94.9186,4.0,10.39198249,30.21646929,13.22,'11111222,11111222,11111222' 
TABS,ioos:station:wmo:42043:1,2012-01-01T18:00:00Z,28.9818,-94.9186,4.0,8.477363977,31.34597988,10.76,'11111222,11111222,11111222' 
TABS,ioos:station:wmo:42043:1,2012-01-01T18:30:00Z,28.9818,-94.9186,4.0,9.088899823,33.37506628,11.23,'11111222,11111222,11111222' 
TABS,ioos:station:wmo:42043:1,2012-01-01T19:00:00Z,28.9818,-94.9186,4.0,8.532555303,32.7026623,10.61,'11111222,11111222,11111222' 
TABS,ioos:station:wmo:42043:1,2012-01-01T19:30:00Z,28.9818,-94.9186,4.0,8.942421372,34.38283697,11.28,'11111222,11111222,11111222' 
TABS,ioos:station:wmo:42043:1,2012-01-01T20:00:00Z,28.9818,-94.9186,4.0,8.906879364,32.76199468,11.29,'11111222,11111222,11111222' 
TABS,ioos:station:wmo:42043:1,2012-01-01T20:30:00Z,28.9818,-94.9186,4.0,8.706233399,34.09133406,10.69,'11111222,11111222,11111222' 
TABS,ioos:station:wmo:42043:1,2012-01-01T21:00:00Z,28.9818,-94.9186,4.0,7.633190683,33.02357987,9.42,'11111222,11111222,11111222' 
TABS,ioos:station:wmo:42043:1,2012-01-01T21:30:00Z,28.9818,-94.9186,4.0,7.595742228,30.71768216,9.23,'11111222,11111222,11111222' 
TABS,ioos:station:wmo:42043:1,2012-01-01T22:00:00Z,28.9818,-94.9186,4.0,7.197923312,31.30475892,8.75,'11111222,11111222,11111222' 
TABS,ioos:station:wmo:42043:1,2012-01-01T22:30:00Z,28.9818,-94.9186,4.0,6.205304183,28.17540697,7.5,'11111222,11111222,11111222' 
TABS,ioos:station:wmo:42043:1,2012-01-01T23:00:00Z,28.9818,-94.9186,4.0,5.064484179,20.93978226,6.29,'11111222,11111222,11111222' 
TABS,ioos:station:wmo:42043:1,2012-01-01T23:30:00Z,28.9818,-94.9186,4.0,7.137856821,13.86078469,8.84,'11111222,11111222,11111222' 
TABS,ioos:station:wmo:42043:1,2012-01-02T00:00:00Z,28.9818,-94.9186,4.0,6.778060194,12.7852918,8.26,'11111222,11111222,11111222' 
TABS,ioos:station:wmo:42043:1,2012-01-02T00:30:00Z,28.9818,-94.9186,4.0,6.604460614,10.2037394,8.13,'11111222,11111222,11111222' 
TABS,ioos:station:wmo:42043:1,2012-01-02T01:00:00Z,28.9818,-94.9186,4.0,6.32792225,9.000638178,7.7,'11111222,11111222,11111222' 
TABS,ioos:station:wmo:42043:1,2012-01-02T01:30:00Z,28.9818,-94.9186,4.0,6.877448655,2.666654754,9.02,'11111222,11111222,11111222' 
TABS,ioos:station:wmo:42043:1,2012-01-02T02:00:00Z,28.9818,-94.9186,4.0,7.751264413,6.593015822,9.4,'11111222,11111222,11111222' 
TABS,ioos:station:wmo:42043:1,2012-01-02T02:30:00Z,28.9818,-94.9186,4.0,9.225323843,11.18789378,11.5,'11111222,11111222,11111222' 
TABS,ioos:station:wmo:42043:1,2012-01-02T03:00:00Z,28.9818,-94.9186,4.0,9.73194739,11.97938442,12.08,'11111222,11111222,11111222' 
TABS,ioos:station:wmo:42043:1,2012-01-02T03:30:00Z,28.9818,-94.9186,4.0,9.664884893,8.448458206,12.33,'11111222,11111222,11111222' 
TABS,ioos:station:wmo:42043:1,2012-01-02T04:00:00Z,28.9818,-94.9186,4.0,9.640798722,14.10807014,12.09,'11111222,11111222,11111222' 
TABS,ioos:station:wmo:42043:1,2012-01-02T04:30:00Z,28.9818,-94.9186,4.0,9.234440968,9.788498884,11.58,'11111222,11111222,11111222' 
TABS,ioos:station:wmo:42043:1,2012-01-02T05:00:00Z,28.9818,-94.9186,4.0,9.946743186,15.39127849,13.02,'11111222,11111222,11111222' 
TABS,ioos:station:wmo:42043:1,2012-01-02T05:30:00Z,28.9818,-94.9186,4.0,9.778057067,17.98997731,11.73,'11111222,11111222,11111222' 
TABS,ioos:station:wmo:42043:1,2012-01-02T06:00:00Z,28.9818,-94.9186,4.0,9.472328119,21.87977366,12.16,'11111222,11111222,11111222' 
TABS,ioos:station:wmo:42043:1,2012-01-02T06:30:00Z,28.9818,-94.9186,4.0,10.20429811,23.75128424,12.95,'11111222,11111222,11111222' 
TABS,ioos:station:wmo:42043:1,2012-01-02T07:00:00Z,28.9818,-94.9186,4.0,10.5989858,26.68565531,13.28,'11111222,11111222,11111222' 
TABS,ioos:station:wmo:42043:1,2012-01-02T07:30:00Z,28.9818,-94.9186,4.0,10.28600992,26.31566867,12.74,'11111222,11111222,11111222' 
TABS,ioos:station:wmo:42043:1,2012-01-02T08:00:00Z,28.9818,-94.9186,4.0,10.59160517,27.55670713,12.77,'11111222,11111222,11111222' 
TABS,ioos:station:wmo:42043:1,2012-01-02T08:30:00Z,28.9818,-94.9186,4.0,10.50338041,33.97723752,13.07,'11111222,11111222,11111222' 
TABS,ioos:station:wmo:42043:1,2012-01-02T09:00:00Z,28.9818,-94.9186,4.0,9.648885946,29.35423977,11.86,'11111222,11111222,11111222' 
TABS,ioos:station:wmo:42043:1,2012-01-02T09:30:00Z,28.9818,-94.9186,4.0,9.56783152,34.86908137,12.56,'11111222,11111222,11111222' 
TABS,ioos:station:wmo:42043:1,2012-01-02T10:00:00Z,28.9818,-94.9186,4.0,10.71190926,43.03257543,13.63,'11111222,11111222,11111222' 
TABS,ioos:station:wmo:42043:1,2012-01-02T10:30:00Z,28.9818,-94.9186,4.0,11.07152203,42.29078526,13.33,'11111222,11111222,11111222' 
TABS,ioos:station:wmo:42043:1,2012-01-02T11:00:00Z,28.9818,-94.9186,4.0,10.52352127,42.65060842,12.76,'11111222,11111222,11111222' 
TABS,ioos:station:wmo:42043:1,2012-01-02T11:30:00Z,28.9818,-94.9186,4.0,11.07556319,40.27554495,13.76,'11111222,11111222,11111222' 
TABS,ioos:station:wmo:42043:1,2012-01-02T12:00:00Z,28.9818,-94.9186,4.0,11.24126772,43.23341796,13.93,'11111222,11111222,11111222' 
TABS,ioos:station:wmo:42043:1,2012-01-02T12:30:00Z,28.9818,-94.9186,4.0,11.04337358,46.79761196,14.54,'11111222,11111222,11111222' 
TABS,ioos:station:wmo:42043:1,2012-01-02T13:00:00Z,28.9818,-94.9186,4.0,10.5863497,39.40334533,13.3,'11111222,11111222,11111222' 
TABS,ioos:station:wmo:42043:1,2012-01-02T13:30:00Z,28.9818,-94.9186,4.0,10.90013761,41.13122538,14.23,'11111222,11111222,11111222' 
TABS,ioos:station:wmo:42043:1,2012-01-02T14:00:00Z,28.9818,-94.9186,4.0,9.688694442,36.18360001,12.03,'11111222,11111222,11111222' 
TABS,ioos:station:wmo:42043:1,2012-01-02T14:30:00Z,28.9818,-94.9186,4.0,9.095108575,37.76418207,11.78,'11111222,11111222,11111222' 
TABS,ioos:station:wmo:42043:1,2012-01-02T15:00:00Z,28.9818,-94.9186,4.0,9.342638814,27.05845792,12.0,'11111222,11111222,11111222' 
TABS,ioos:station:wmo:42043:1,2012-01-02T15:30:00Z,28.9818,-94.9186,4.0,9.678760251,25.71758496,12.76,'11111222,11111222,11111222' 
TABS,ioos:station:wmo:42043:1,2012-01-02T16:00:00Z,28.9818,-94.9186,4.0,9.339828692,31.06868039,11.9,'11111222,11111222,11111222' 
TABS,ioos:station:wmo:42043:1,2012-01-02T16:30:00Z,28.9818,-94.9186,4.0,8.55462448,31.42293171,11.21,'11111222,11111222,11111222' 
TABS,ioos:station:wmo:42043:1,2012-01-02T17:00:00Z,28.9818,-94.9186,4.0,8.726723326,35.43816448,11.1,'11111222,11111222,11111222' 
TABS,ioos:station:wmo:42043:1,2012-01-02T17:30:00Z,28.9818,-94.9186,4.0,8.081435516,28.53096657,10.14,'11111222,11111222,11111222' 
TABS,ioos:station:wmo:42043:1,2012-01-02T18:00:00Z,28.9818,-94.9186,4.0,6.662439493,7.850146843,8.29,'11111222,11111222,11111222' 
TABS,ioos:station:wmo:42043:1,2012-01-02T18:30:00Z,28.9818,-94.9186,4.0,6.326736916,11.48730084,8.75,'11111222,11111222,11111222' 
TABS,ioos:station:wmo:42043:1,2012-01-02T19:00:00Z,28.9818,-94.9186,4.0,6.729019245,10.79202822,8.45,'11111222,11111222,11111222' 
TABS,ioos:station:wmo:42043:1,2012-01-02T19:30:00Z,28.9818,-94.9186,4.0,5.881776942,13.46896901,7.73,'11111222,11111222,11111222' 
TABS,ioos:station:wmo:42043:1,2012-01-02T20:00:00Z,28.9818,-94.9186,4.0,4.653815639,15.70839064,6.31,'11111222,11111222,11111222' 
TABS,ioos:station:wmo:42043:1,2012-01-02T20:30:00Z,28.9818,-94.9186,4.0,3.504069063,15.90022802,4.81,'11111222,11111222,11111222' 
TABS,ioos:station:wmo:42043:1,2012-01-02T21:00:00Z,28.9818,-94.9186,4.0,2.49280966,10.63353917,3.54,'11111222,11111222,11111222' 
TABS,ioos:station:wmo:42043:1,2012-01-02T21:30:00Z,28.9818,-94.9186,4.0,2.278815482,16.0487568,3.17,'11111222,11111222,11111222' 
TABS,ioos:station:wmo:42043:1,2012-01-02T22:00:00Z,28.9818,-94.9186,4.0,0.802246845,274.2891433,1.42,'11111222,11111222,11111222' 
TABS,ioos:station:wmo:42043:1,2012-01-02T22:30:00Z,28.9818,-94.9186,4.0,3.731179438,320.7644965,4.78,'11111222,11111222,11111222' 
TABS,ioos:station:wmo:42043:1,2012-01-02T23:00:00Z,28.9818,-94.9186,4.0,5.145250237,329.6472358,6.53,'11111222,11111222,11111222' 
TABS,ioos:station:wmo:42043:1,2012-01-02T23:30:00Z,28.9818,-94.9186,4.0,5.696402373,320.4132419,6.98,'11111222,11111222,11111222' 
TABS,ioos:station:wmo:42043:1,2012-01-03T00:00:00Z,28.9818,-94.9186,4.0,5.730698038,325.4501533,7.51,'11111222,11111222,11111222' 
TABS,ioos:station:wmo:42043:1,2012-01-03T00:30:00Z,28.9818,-94.9186,4.0,5.853580101,321.7986717,7.35,'11111222,11111222,11111222' 
TABS,ioos:station:wmo:42043:1,2012-01-03T01:00:00Z,28.9818,-94.9186,4.0,5.442811773,324.1195509,6.91,'11111222,11111222,11111222' 
TABS,ioos:station:wmo:42043:1,2012-01-03T01:30:00Z,28.9818,-94.9186,4.0,5.48884323,325.9913341,6.78,'11111222,11111222,11111222' 
TABS,ioos:station:wmo:42043:1,2012-01-03T02:00:00Z,28.9818,-94.9186,4.0,6.206722162,331.4114987,8.22,'11111222,11111222,11111222' 
TABS,ioos:station:wmo:42043:1,2012-01-03T02:30:00Z,28.9818,-94.9186,4.0,6.51429198,341.5648838,8.22,'11111222,11111222,11111222' 
TABS,ioos:station:wmo:42043:1,2012-01-03T03:00:00Z,28.9818,-94.9186,4.0,7.011889902,345.5473951,8.92,'11111222,11111222,11111222' 
TABS,ioos:station:wmo:42043:1,2012-01-03T03:30:00Z,28.9818,-94.9186,4.0,7.060679854,355.6135419,8.85,'11111222,11111222,11111222' 
TABS,ioos:station:wmo:42043:1,2012-01-03T04:00:00Z,28.9818,-94.9186,4.0,8.187661449,353.1959407,10.36,'11111222,11111222,11111222' 
TABS,ioos:station:wmo:42043:1,2012-01-03T04:30:00Z,28.9818,-94.9186,4.0,7.285773809,348.921224,9.39,'11111222,11111222,11111222' 
TABS,ioos:station:wmo:42043:1,2012-01-03T05:00:00Z,28.9818,-94.9186,4.0,6.782219401,352.8852682,8.94,'11111222,11111222,11111222' 
TABS,ioos:station:wmo:42043:1,2012-01-03T05:30:00Z,28.9818,-94.9186,4.0,6.582165297,356.5157707,8.28,'11111222,11111222,11111222' 
TABS,ioos:station:wmo:42043:1,2012-01-03T06:00:00Z,28.9818,-94.9186,4.0,6.541498299,1.226114534,9.03,'11111222,11111222,11111222' 
TABS,ioos:station:wmo:42043:1,2012-01-03T06:30:00Z,28.9818,-94.9186,4.0,6.29114457,358.9068414,7.88,'11111222,11111222,11111222' 
TABS,ioos:station:wmo:42043:1,2012-01-03T07:00:00Z,28.9818,-94.9186,4.0,6.110662812,0.843690556,7.58,'11111222,11111222,11111222' 
TABS,ioos:station:wmo:42043:1,2012-01-03T07:30:00Z,28.9818,-94.9186,4.0,6.288664405,356.9917977,8.07,'11111222,11111222,11111222' 
TABS,ioos:station:wmo:42043:1,2012-01-03T08:00:00Z,28.9818,-94.9186,4.0,6.691076147,1.027403925,8.27,'11111222,11111222,11111222' 
TABS,ioos:station:wmo:42043:1,2012-01-03T08:30:00Z,28.9818,-94.9186,4.0,7.088335489,12.87926378,9.6,'11111222,11111222,11111222' 
TABS,ioos:station:wmo:42043:1,2012-01-03T09:00:00Z,28.9818,-94.9186,4.0,7.2217034,15.17137157,9.06,'11111222,11111222,11111222' 
TABS,ioos:station:wmo:42043:1,2012-01-03T09:30:00Z,28.9818,-94.9186,4.0,7.318415129,38.34160908,9.46,'11111222,11111222,11111222' 
TABS,ioos:station:wmo:42043:1,2012-01-03T10:00:00Z,28.9818,-94.9186,4.0,8.496028484,39.02813238,11.44,'11111222,11111222,11111222' 
TABS,ioos:station:wmo:42043:1,2012-01-03T10:30:00Z,28.9818,-94.9186,4.0,9.55362235,40.54244467,11.72,'11111222,11111222,11111222' 
TABS,ioos:station:wmo:42043:1,2012-01-03T11:00:00Z,28.9818,-94.9186,4.0,9.475325852,44.74313836,11.59,'11111222,11111222,11111222' 
TABS,ioos:station:wmo:42043:1,2012-01-03T11:30:00Z,28.9818,-94.9186,4.0,9.637930276,45.20986549,11.82,'11111222,11111222,11111222' 
TABS,ioos:station:wmo:42043:1,2012-01-03T12:00:00Z,28.9818,-94.9186,4.0,9.685313624,55.89940515,11.94,'11111222,11111222,11111222' 
TABS,ioos:station:wmo:42043:1,2012-01-03T12:30:00Z,28.9818,-94.9186,4.0,9.546025351,53.2618127,12.21,'11111222,11111222,11111222' 
TABS,ioos:station:wmo:42043:1,2012-01-03T13:00:00Z,28.9818,-94.9186,4.0,8.470419116,55.97189889,11.28,'11111222,11111222,11111222' 
TABS,ioos:station:wmo:42043:1,2012-01-03T13:30:00Z,28.9818,-94.9186,4.0,8.378812565,56.5371786,10.74,'11111222,11111222,11111222' 
TABS,ioos:station:wmo:42043:1,2012-01-03T14:00:00Z,28.9818,-94.9186,4.0,8.197950964,61.43380909,10.41,'11111222,11111222,11111222' 
TABS,ioos:station:wmo:42043:1,2012-01-03T14:30:00Z,28.9818,-94.9186,4.0,7.692106344,63.60114667,10.08,'11111222,11111222,11111222' 
TABS,ioos:station:wmo:42043:1,2012-01-03T15:00:00Z,28.9818,-94.9186,4.0,7.085174663,65.74976713,9.09,'11111222,11111222,11111222' 
TABS,ioos:station:wmo:42043:1,2012-01-03T15:30:00Z,28.9818,-94.9186,4.0,6.106398284,71.77237288,7.98,'11111222,11111222,11111222' 
TABS,ioos:station:wmo:42043:1,2012-01-03T16:00:00Z,28.9818,-94.9186,4.0,5.747390712,68.56846192,8.06,'11111222,11111222,11111222' 
TABS,ioos:station:wmo:42043:1,2012-01-03T16:30:00Z,28.9818,-94.9186,4.0,5.596302351,66.96236284,7.79,'11111222,11111222,11111222' 
TABS,ioos:station:wmo:42043:1,2012-01-03T17:00:00Z,28.9818,-94.9186,4.0,5.273196374,64.26067864,7.1,'11111222,11111222,11111222' 
TABS,ioos:station:wmo:42043:1,2012-01-03T17:30:00Z,28.9818,-94.9186,4.0,4.81300322,79.34338474,6.41,'11111222,11111222,11111222' 
TABS,ioos:station:wmo:42043:1,2012-01-03T18:00:00Z,28.9818,-94.9186,4.0,4.604888707,85.39094088,6.01,'11111222,11111222,11111222' 
TABS,ioos:station:wmo:42043:1,2012-01-03T18:30:00Z,28.9818,-94.9186,4.0,3.899551256,95.74024063,6.33,'11111222,11111222,11111222' 
TABS,ioos:station:wmo:42043:1,2012-01-03T19:00:00Z,28.9818,-94.9186,4.0,4.202332686,88.09043111,5.9,'11111222,11111222,11111222' 
TABS,ioos:station:wmo:42043:1,2012-01-03T19:30:00Z,28.9818,-94.9186,4.0,4.324187785,85.35698774,6.75,'11111222,11111222,11111222' 
TABS,ioos:station:wmo:42043:1,2012-01-03T20:00:00Z,28.9818,-94.9186,4.0,4.256724093,103.4490045,5.75,'11111222,11111222,11111222' 
TABS,ioos:station:wmo:42043:1,2012-01-03T20:30:00Z,28.9818,-94.9186,4.0,4.098902292,107.4628088,6.06,'11111222,11111222,11111222' 
TABS,ioos:station:wmo:42043:1,2012-01-03T21:00:00Z,28.9818,-94.9186,4.0,4.346768915,104.9318032,5.78,'11111222,11111222,11111222' 
TABS,ioos:station:wmo:42043:1,2012-01-03T21:30:00Z,28.9818,-94.9186,4.0,4.201202209,129.1074191,5.9,'11111222,11111222,11111222' 
TABS,ioos:station:wmo:42043:1,2012-01-03T22:00:00Z,28.9818,-94.9186,4.0,3.880747351,138.1338108,5.64,'11111222,11111222,11111222' 
TABS,ioos:station:wmo:42043:1,2012-01-03T22:30:00Z,28.9818,-94.9186,4.0,3.960202015,135.8187692,5.98,'11111222,11111222,11111222' 
TABS,ioos:station:wmo:42043:1,2012-01-03T23:00:00Z,28.9818,-94.9186,4.0,3.539675126,155.4625394,4.93,'11111222,11111222,11111222' 
TABS,ioos:station:wmo:42043:1,2012-01-03T23:30:00Z,28.9818,-94.9186,4.0,3.900833244,154.8147811,6.13,'11111222,11111222,11111222' 
TABS,ioos:station:wmo:42043:1,2012-01-04T00:00:00Z,28.9818,-94.9186,4.0,4.54529427,151.9129592,6.54,'11111222,11111222,11111222' 
TABS,ioos:station:wmo:42043:1,2012-01-04T00:30:00Z,28.9818,-94.9186,4.0,4.777216763,156.171731,6.73,'11111222,11111222,11111222' 
TABS,ioos:station:wmo:42043:1,2012-01-04T01:00:00Z,28.9818,-94.9186,4.0,5.185903971,169.5570408,7.45,'11111222,11111222,11111222' 
TABS,ioos:station:wmo:42043:1,2012-01-04T01:30:00Z,28.9818,-94.9186,4.0,5.346269728,169.1106611,7.32,'11111222,11111222,11111222' 
TABS,ioos:station:wmo:42043:1,2012-01-04T02:00:00Z,28.9818,-94.9186,4.0,5.980836062,179.0421786,7.88,'11111222,11111222,11111222' 
TABS,ioos:station:wmo:42043:1,2012-01-04T02:30:00Z,28.9818,-94.9186,4.0,6.172625049,181.6712464,8.01,'11111222,11111222,11111222' 
TABS,ioos:station:wmo:42043:1,2012-01-04T03:00:00Z,28.9818,-94.9186,4.0,6.340007886,180.0905821,8.29,'11111222,11111222,11111222' 
TABS,ioos:station:wmo:42043:1,2012-01-04T03:30:00Z,28.9818,-94.9186,4.0,6.745702336,183.9103246,8.69,'11111222,11111222,11111222' 
TABS,ioos:station:wmo:42043:1,2012-01-04T04:00:00Z,28.9818,-94.9186,4.0,6.444610151,190.8219122,8.06,'11111222,11111222,11111222' 
TABS,ioos:station:wmo:42043:1,2012-01-04T04:30:00Z,28.9818,-94.9186,4.0,7.431231392,196.0938384,10.83,'11111222,11111222,11111222' 
TABS,ioos:station:wmo:42043:1,2012-01-04T05:00:00Z,28.9818,-94.9186,4.0,8.118035477,196.0909892,10.49,'11111222,11111222,11111222' 
TABS,ioos:station:wmo:42043:1,2012-01-04T05:30:00Z,28.9818,-94.9186,4.0,6.849598528,198.117692,9.06,'11111222,11111222,11111222' 
TABS,ioos:station:wmo:42043:1,2012-01-04T06:00:00Z,28.9818,-94.9186,4.0,6.020514928,195.9063523,8.21,'11111222,11111222,11111222' 
TABS,ioos:station:wmo:42043:1,2012-01-04T06:30:00Z,28.9818,-94.9186,4.0,5.482307908,202.636101,7.21,'11111222,11111222,11111222' 
TABS,ioos:station:wmo:42043:1,2012-01-04T07:00:00Z,28.9818,-94.9186,4.0,5.818676826,198.1237299,7.71,'11111222,11111222,11111222' 
TABS,ioos:station:wmo:42043:1,2012-01-04T07:30:00Z,28.9818,-94.9186,4.0,6.28048565,200.3106258,7.73,'11111222,11111222,11111222' 
TABS,ioos:station:wmo:42043:1,2012-01-04T08:00:00Z,28.9818,-94.9186,4.0,5.648734372,197.4086523,7.02,'11111222,11111222,11111222' 
TABS,ioos:station:wmo:42043:1,2012-01-04T08:30:00Z,28.9818,-94.9186,4.0,5.316013544,196.3897125,6.5,'11111222,11111222,11111222' 
TABS,ioos:station:wmo:42043:1,2012-01-04T09:00:00Z,28.9818,-94.9186,4.0,3.720779488,200.2858621,4.93,'11111222,11111222,11111222' 
TABS,ioos:station:wmo:42043:1,2012-01-04T09:30:00Z,28.9818,-94.9186,4.0,3.18284464,201.567574,4.14,'11111222,11111222,11111222' 
TABS,ioos:station:wmo:42043:1,2012-01-04T10:00:00Z,28.9818,-94.9186,4.0,1.808341782,204.1556656,2.56,'11111222,11111222,11111222' 
TABS,ioos:station:wmo:42043:1,2012-01-04T10:30:00Z,28.9818,-94.9186,4.0,1.34617978,228.6139775,1.89,'11111222,11111222,11111222' 
TABS,ioos:station:wmo:42043:1,2012-01-04T11:00:00Z,28.9818,-94.9186,4.0,1.290155029,217.7582553,1.74,'11111222,11111222,11111222' 
TABS,ioos:station:wmo:42043:1,2012-01-04T11:30:00Z,28.9818,-94.9186,4.0,1.705784277,235.7510471,2.12,'11111222,11111222,11111222' 
TABS,ioos:station:wmo:42043:1,2012-01-04T12:00:00Z,28.9818,-94.9186,4.0,1.370109485,236.3100113,1.76,'11111222,11111222,11111222' 
TABS,ioos:station:wmo:42043:1,2012-01-04T12:30:00Z,28.9818,-94.9186,4.0,0.951262319,192.1370065,1.66,'11111222,11111222,11111222' 
TABS,ioos:station:wmo:42043:1,2012-01-04T13:00:00Z,28.9818,-94.9186,4.0,0.250798724,23.49830027,1.12,'11111222,11111222,11111222' 
TABS,ioos:station:wmo:42043:1,2012-01-04T13:30:00Z,28.9818,-94.9186,4.0,0.1,323.1299781,0.71,'11111222,11111222,11111222' 
TABS,ioos:station:wmo:42043:1,2012-01-04T14:00:00Z,28.9818,-94.9186,4.0,1.363121418,162.4957787,1.79,'11111222,11111222,11111222' 
TABS,ioos:station:wmo:42043:1,2012-01-04T14:30:00Z,28.9818,-94.9186,4.0,1.074476617,128.5768603,1.59,'11111222,11111222,11111222' 
TABS,ioos:station:wmo:42043:1,2012-01-04T15:00:00Z,28.9818,-94.9186,4.0,1.799694419,103.4961226,2.2,'11111222,11111222,11111222' 
TABS,ioos:station:wmo:42043:1,2012-01-04T15:30:00Z,28.9818,-94.9186,4.0,1.600312469,123.7897088,2.15,'11111222,11111222,11111222' 
TABS,ioos:station:wmo:42043:1,2012-01-04T16:00:00Z,28.9818,-94.9186,4.0,2.041568025,92.24615823,2.7,'11111222,11111222,11111222' 
TABS,ioos:station:wmo:42043:1,2012-01-04T16:30:00Z,28.9818,-94.9186,4.0,1.34212518,82.29211138,1.79,'11111222,11111222,11111222' 
TABS,ioos:station:wmo:42043:1,2012-01-04T17:00:00Z,28.9818,-94.9186,4.0,1.819945054,84.00706565,2.35,'11111222,11111222,11111222' 
TABS,ioos:station:wmo:42043:1,2012-01-04T17:30:00Z,28.9818,-94.9186,4.0,2.358495283,57.99427072,2.97,'11111222,11111222,11111222' 
TABS,ioos:station:wmo:42043:1,2012-01-04T18:00:00Z,28.9818,-94.9186,4.0,2.779658252,55.10895916,3.46,'11111222,11111222,11111222' 
TABS,ioos:station:wmo:42043:1,2012-01-04T18:30:00Z,28.9818,-94.9186,4.0,3.137036818,56.96813198,3.93,'11111222,11111222,11111222' 